{"data":{"norad_id":40941,"epoch":"2026-09-20T04:35:38.726016Z","epoch_age_seconds":48503,"freshness":"FRESH","line1":"1 40941U 15054B   26263.19142044  .00000000  00000+0  00000+0 0  9995","line2":"2 40941   0.0130 158.0284 0001876  13.1672 175.8069  1.00269783 40257","mean_motion":1.00269783,"eccentricity":0.0001876,"inclination_deg":0.013,"raan_deg":158.0284,"arg_perigee_deg":13.1672,"mean_anomaly_deg":175.8069,"bstar":0,"rev_number":4025,"period_min":1436.1255773337,"perigee_km":35779.245994798,"apogee_km":35795.066412808,"semimajor_km":42165.293203803,"source":"CELESTRAK","updated_at":"2026-09-20T09:00:35.219969Z"}}